User: anonymous   Login
Location: Unspecified
(0.0000°N, 0.0000°E)
Time: 18:53:58
(UTC+00:00)
Language:

OBJECT H - Orbit

View from above orbital plane
View from above orbital plane
View from above satellite
View from above satellite

Ground track
Ground track

The orbit data is extracted from the following two-line orbital elements,

1 41939U 98067KZ  17084.40283579 +.00030210 +00000-0 +39539-3 0  9992
2 41939 051.6439 094.7758 0006726 323.0425 037.0093 15.58319268009847
Epoch (UTC): 25 March 2017 09:40:05
Eccentricity: 0.0006726
inclination: 51.6439°
perigee height: 388 km
apogee height: 397 km
right ascension of ascending node: 94.7758°
argument of perigee: 323.0425°
revolutions per day: 15.58319268
mean anomaly at epoch: 37.0093°
orbit number at epoch: 984

The dashed part of the orbit path shows where the satellite is in the earth's shadow,  

DLR